Location: Akdamlar
(36.8729°N, 30.5187°E)
Time: 17:35:51
(UTC+00:00)

Cosmos 2026 Rocket - Pass Details

Date: 18 September 2020
Orbit: 940 x 1000 km, 82.9° (Epoch: 27 October)

Event Time Altitude Azimuth Distance (km) Brightness Sun altitude
Rises 18:14:39 0° 358° (N) 3,717 7.4 -26.8°
Reaches altitude 10° 18:17:16 10° 3° (N) 2,770 6.6 -27.3°
Enters shadow 18:22:20 48° 44° (NE) 1,282 4.4 -28.2°
